Location: Buchdorf
(48.7842°N, 10.8275°E)
Time: 23:53:43
(UTC+00:00)

Cosmos 1943 Rocket - Pass Details

Date: 09 April 2020
Orbit: 811 x 845 km, 71.0° (Epoch: 04 June)

Event Time Altitude Azimuth Distance (km) Brightness Sun altitude
Rises 18:25:00 0° 324° (NW) 3,359 6.3 -4.8°
Reaches altitude 10° 18:27:41 10° 314° (NW) 2,427 5.8 -5.2°
Maximum altitude 18:32:24 29° 255° (WSW) 1,462 4.2 -6.0°
Drops below altitude 10° 18:37:09 10° 197° (SSW) 2,432 4.6 -6.7°
Sets 18:39:51 0° 186° (S) 3,367 5.2 -7.1°
